Location: CNYAC Observatory
(43.2150°N, 74.9500°W)
Time: 08:42:56
(UTC-05:00)

Cosmos 1975 Rocket - Visible Passes

Search period start: 11 December 2016 00:00
Search period end: 21 December 2016 00:00
Orbit: 603 x 635 km, 82.5° (Epoch: 10 December)

Date Brightness Start Highest point End Pass type
(mag) Time Alt. Az. Time Alt. Az. Time Alt. Az.
11 Dec 5.0 17:06:35 10° SW 17:10:20 29° WNW 17:14:08 10° NNW visible
12 Dec 5.7 17:25:10 10° WSW 17:27:57 17° WNW 17:30:45 10° NNW visible
16 Dec 5.7 16:57:02 10° WSW 16:59:42 16° WNW 17:02:23 10° NNW visible
